Probability
40 40 38 36 30 21 16 17 19 18 17 18 19 19 18 19 20 19 18 18 18 17 15 12 9 6 8 10 9 9 9 8 6 4 5 5 7 6 3 4 5 2 0
40 40 39 36 32 25 20 22 25 25 22 21 22 20 19 19 20 20 19 18 19 18 16 13 10 8 8 8 8 8 8 8 7 5 4 6 8 7 5 5 4 2 1
37 38 37 36 34 31 28 29 31 31 28 26 25 22 19 18 18 19 19 19 19 19 18 16 13 10 9 8 8 7 7 8 8 6 4 5 6 6 5 4 2 1 0
33 33 33 33 34 33 34 35 34 33 31 28 25 23 21 19 16 15 17 19 20 20 20 20 16 12 10 9 8 7 7 7 7 6 4 3 3 3 3 2 0 0 1
34 32 30 30 31 33 36 36 34 31 29 27 24 23 23 19 14 12 14 18 21 22 22 20 16 11 8 7 7 7 7 7 6 6 5 2 1 2 1 0 0 0 1
37 33 30 30 31 33 34 34 32 29 27 25 24 23 22 17 11 8 10 16 21 22 23 20 14 9 7 5 4 4 4 4 4 6 5 3 1 1 1 0 0 0 1
40 37 33 32 32 33 33 32 31 29 27 26 24 22 20 16 10 5 7 13 18 20 22 21 15 9 6 6 5 3 1 1 2 3 2 2 2 3 3 2 1 0 1
39 37 36 35 35 35 35 33 32 29 26 24 22 22 20 16 10 5 4 10 15 18 20 21 18 11 6 6 6 3 1 1 0 0 0 1 2 3 3 3 2 1 1
35 35 35 35 35 36 36 34 32 29 26 22 19 20 20 17 11 5 4 8 13 15 15 16 15 10 5 3 3 3 3 2 1 0 0 0 0 1 1 1 1 1 1
35 35 34 34 35 36 35 34 31 29 27 22 19 18 19 17 11 5 4 7 11 13 13 12 10 6 2 0 1 3 4 3 2 1 1 1 2 1 0 0 0 1 2
36 36 36 34 34 35 34 32 31 30 28 25 21 19 19 18 13 6 3 5 8 11 13 12 9 4 1 0 1 3 3 2 2 2 1 3 5 4 2 2 2 2 2
37 37 38 36 34 34 33 32 32 32 30 26 23 20 19 19 15 7 2 2 3 5 9 10 8 4 1 0 0 1 1 1 2 3 2 3 5 6 6 5 5 5 4
37 37 38 38 37 35 34 33 34 34 31 25 21 19 20 21 17 9 3 0 0 1 3 4 3 1 0 0 0 0 0 1 3 3 3 3 4 6 8 8 8 7 7
36 36 36 37 37 36 35 33 32 31 28 23 19 18 20 21 16 10 5 2 0 0 0 0 1 1 0 1 1 1 1 2 3 3 4 4 4 6 8 9 9 9 8
34 34 33 33 32 32 30 26 22 20 18 16 15 15 16 16 11 7 5 3 1 0 0 2 3 3 2 1 2 3 3 3 3 4 5 5 5 6 7 8 8 8 8
33 33 30 27 25 25 22 18 13 9 6 6 7 7 7 6 4 2 2 1 0 0 1 3 5 5 3 2 2 2 3 3 4 5 6 6 6 6 7 7 7 7 7
31 31 28 22 19 20 19 16 12 7 4 2 1 0 1 1 0 0 0 0 0 0 1 4 5 5 5 4 4 2 2 3 5 5 6 6 6 6 6 6 6 6 6
26 25 24 20 17 17 17 16 14 12 9 7 4 1 0 0 0 0 0 0 1 2 3 4 5 5 6 6 5 4 3 3 5 5 6 6 6 6 6 6 6 6 6
18 16 16 16 16 15 14 14 14 13 12 11 9 5 3 2 1 1 0 1 3 5 6 6 6 6 6 5 5 5 4 4 4 4 4 5 6 6 6 6 6 6 5
12 10 9 11 13 13 12 11 12 12 11 12 11 8 5 5 4 3 2 3 7 9 8 8 7 7 5 3 3 4 4 4 3 3 3 4 5 6 6 6 6 5 5
11 9 8 9 10 10 9 9 10 10 11 11 11 7 5 5 5 4 4 7 9 10 9 9 8 7 5 3 2 2 2 3 2 1 1 2 3 4 5 6 6 5 4
10 8 8 8 8 7 7 7 8 10 10 10 10 7 3 3 4 5 6 8 9 10 10 9 8 7 6 4 3 2 1 1 1 1 1 1 1 2 3 5 5 5 4
6 5 5 6 6 7 7 7 8 10 10 10 11 9 6 4 5 7 7 7 9 9 9 8 7 5 5 5 4 2 1 0 0 1 2 2 1 1 1 2 3 4 3
2 2 2 4 6 8 8 8 10 12 12 12 12 11 9 8 8 9 8 8 8 9 9 7 5 4 5 5 4 1 0 0 0 0 1 1 1 1 1 1 1 1 1
1 3 4 4 6 7 7 9 10 12 13 13 13 11 10 10 9 9 8 8 8 8 7 6 5 4 5 4 2 0 0 0 0 0 0 0 0 1 1 0 0 0 0
3 4 5 5 5 5 6 8 9 11 12 13 13 12 10 9 9 8 8 8 8 7 5 4 4 4 4 3 1 0 0 0 0 0 0 0 0 0 0 0 0 0 0
Wind_Speed
5 4 4 3 3 2 1 1 0 1 1 0 1 1 1 1 1 1 2 1 2 2 2 2 2 2 2 2 2 1 1 1 1 1 0 0 1 1 3 2 4 5 5
6 5 4 3 2 2 2 1 1 0 0 0 0 1 1 1 1 1 2 2 2 2 2 2 2 2 1 2 2 2 1 1 1 1 1 0 0 1 3 2 2 3 4
7 6 4 3 3 2 1 1 1 1 0 0 0 1 1 2 1 1 1 2 2 2 1 1 1 2 2 2 2 2 2 2 0 1 0 0 0 1 2 1 1 1 2
6 6 5 3 3 2 1 1 1 1 1 0 0 1 1 1 1 2 2 2 2 2 2 1 1 1 1 2 2 1 1 1 1 0 0 1 1 1 1 2 1 1 2
5 5 5 4 3 2 2 1 1 1 1 1 1 1 2 1 1 2 3 2 2 2 2 1 1 2 3 2 2 1 1 0 0 0 0 0 0 1 1 1 2 2 1
4 4 4 3 3 2 2 2 1 1 1 1 1 1 1 1 2 2 3 3 2 2 2 2 1 1 2 3 2 3 2 1 1 0 0 0 0 0 0 1 1 1 1
4 3 3 3 3 2 2 2 1 1 1 1 1 1 0 1 2 2 3 2 2 2 1 1 2 2 2 1 1 1 2 1 0 0 0 0 0 0 1 1 1 1 1
4 3 3 3 3 2 2 2 1 1 1 1 1 1 0 1 2 2 3 2 1 1 1 1 1 1 2 2 1 0 0 0 1 2 1 1 0 0 0 1 1 1 1
4 3 3 3 2 2 2 2 2 1 1 2 1 1 0 1 0 1 2 2 1 1 0 1 1 1 2 2 1 1 1 1 1 1 2 2 2 1 1 1 1 1 1
3 3 2 2 2 2 2 2 2 2 2 2 1 1 1 1 1 1 0 2 2 1 0 1 2 1 1 1 1 2 1 2 2 1 1 1 2 3 3 3 2 2 2
3 3 2 2 2 3 2 1 1 2 2 2 2 2 2 2 2 2 1 1 3 3 1 1 1 1 1 2 2 2 2 3 3 2 2 2 2 2 3 3 3 3 2
3 3 2 2 2 1 1 1 1 1 2 2 2 2 2 2 2 2 2 2 3 3 3 1 0 1 2 3 3 3 3 3 3 2 2 1 1 2 2 3 3 3 3
3 3 2 2 1 1 1 1 1 2 2 2 2 2 2 2 2 2 3 3 3 3 3 4 3 4 4 4 5 5 4 3 2 2 2 2 1 2 1 2 2 2 2
3 3 3 3 2 2 1 1 1 1 1 1 1 1 1 1 1 1 1 1 2 2 3 3 4 4 4 4 3 3 3 3 2 2 2 1 1 1 1 1 1 1 2
3 3 3 3 3 2 2 1 1 1 2 2 1 1 0 0 0 1 1 1 1 2 2 2 3 2 3 3 2 2 2 2 3 2 2 2 2 1 1 1 2 1 2
3 3 3 2 2 3 3 2 1 1 2 2 1 1 0 1 2 1 1 1 2 2 2 3 3 2 2 2 2 2 2 2 2 2 2 2 2 2 2 1 1 2 2
3 3 2 2 2 2 3 3 3 2 2 3 4 3 3 2 2 2 2 2 3 2 2 3 2 2 2 2 1 2 1 1 1 2 2 2 2 2 2 1 1 2 2
3 3 3 2 2 2 2 2 2 2 3 3 4 6 6 5 4 4 2 1 2 2 2 2 2 2 2 2 2 2 2 2 2 2 2 2 2 2 2 2 2 2 2
3 2 2 2 3 3 2 3 2 2 1 1 2 3 5 4 4 5 3 3 3 2 1 1 2 2 2 2 2 1 2 2 2 2 2 2 2 2 2 2 2 2 2
2 3 3 3 4 3 2 2 1 1 1 1 1 1 2 2 2 2 3 3 2 2 1 1 2 2 2 2 2 2 2 2 2 2 2 2 2 2 2 2 1 1 2
2 2 3 3 3 2 2 2 2 2 2 1 1 1 2 2 3 2 2 2 2 2 1 1 1 1 1 1 2 2 3 3 2 2 3 3 3 2 2 2 2 2 1
2 2 3 3 2 1 2 2 2 2 2 2 1 2 4 3 2 2 2 2 2 2 1 1 1 1 1 1 2 2 2 3 3 3 2 3 3 3 2 2 2 2 2
3 3 2 2 1 1 2 4 3 2 1 1 1 0 1 1 1 1 0 1 1 1 1 1 1 1 2 1 1 2 3 3 3 4 3 4 4 4 3 2 3 2 2
4 3 3 2 1 2 2 2 2 2 2 1 0 0 0 1 1 1 1 1 0 1 1 1 1 2 3 3 2 3 4 4 4 4 4 4 5 4 3 2 3 3 2
3 3 2 1 1 1 1 2 2 1 1 1 0 1 1 0 1 1 1 1 1 1 2 1 1 2 3 4 4 4 4 4 3 5 4 4 4 4 3 3 3 2 3
3 2 1 1 1 1 1 1 1 2 1 1 1 1 1 1 1 1 1 1 1 1 1 2 2 3 3 3 4 4 3 3 4 5 4 4 4 3 3 3 3 3 3
Wind_Direction
154 160 148 158 165 169 175 190 132 346 16 25 320 325 313 303 281 283 288 295 300 301 301 301 303 310 323 319 306 291 269 258 239 257 299 77 115 105 130 157 157 163 169
156 154 152 152 162 175 178 184 163 189 257 142 317 326 321 324 317 308 302 311 306 304 307 318 315 302 297 303 317 315 315 290 213 236 270 343 47 150 150 169 166 167 154
159 156 153 158 162 167 164 153 153 164 204 293 319 310 322 327 335 322 306 307 305 310 314 320 320 330 321 310 305 317 315 310 75 152 258 43 224 186 130 135 126 128 162
150 152 150 161 166 162 168 156 162 175 181 225 293 282 294 320 348 333 320 311 310 316 323 319 331 346 328 318 303 312 327 351 6 109 197 198 210 169 145 149 151 161 168
142 153 153 163 165 155 165 160 177 218 207 189 236 275 276 256 357 345 318 314 322 326 330 342 16 51 52 31 349 5 2 3 329 226 193 151 166 115 175 178 149 152 162
136 147 146 154 161 167 165 161 197 230 262 248 241 265 300 344 358 356 335 320 334 332 338 344 14 81 73 65 46 40 47 22 350 358 4 286 259 152 142 189 165 175 197
147 152 150 155 164 170 177 165 200 220 230 265 276 273 71 25 355 348 335 309 338 334 344 349 331 18 67 81 50 46 49 18 358 231 308 312 291 228 160 191 192 182 196
156 161 168 170 175 170 174 177 199 211 221 246 257 248 135 28 20 358 334 289 302 315 345 353 8 22 4 18 299 187 150 286 241 224 196 260 327 26 251 213 189 173 190
162 174 184 184 177 177 184 193 207 216 238 250 232 205 176 81 78 356 346 297 289 293 281 14 8 33 358 354 317 307 286 286 259 187 179 190 183 216 231 194 200 169 195
164 171 172 177 176 187 199 210 211 213 224 230 195 190 199 179 163 161 358 297 291 282 214 136 76 30 340 337 305 302 303 312 320 322 245 232 223 214 208 204 210 207 199
150 150 159 168 183 185 184 196 215 222 208 217 202 195 187 189 169 178 187 292 323 317 297 260 144 158 282 268 268 271 274 293 290 271 247 227 214 212 201 196 203 210 213
145 155 166 174 205 168 167 199 212 225 228 224 208 209 195 180 156 171 196 244 302 312 309 313 246 253 281 272 256 254 269 290 278 279 274 252 224 210 204 199 201 212 216
151 157 167 173 188 162 196 211 218 209 232 221 212 229 211 163 144 161 203 239 278 297 325 335 305 260 261 257 246 245 252 257 263 270 277 266 259 240 212 195 199 204 213
164 171 184 189 185 167 198 202 217 220 247 256 243 251 236 139 115 143 228 241 265 283 295 296 281 263 258 263 250 234 229 244 254 253 260 279 289 268 234 202 203 200 214
185 196 211 207 186 190 196 209 195 166 191 229 273 300 309 277 293 196 224 265 277 288 282 259 257 249 252 247 239 225 219 231 246 251 246 252 257 258 246 221 211 217 230
209 210 217 218 202 203 196 187 87 186 177 177 173 193 151 154 157 151 224 273 276 286 269 268 268 261 264 275 285 275 245 236 248 246 242 240 244 242 246 230 207 218 235
224 227 225 230 226 227 213 205 201 203 204 216 211 204 197 205 221 238 262 302 292 269 254 270 284 291 291 299 301 308 309 305 286 271 253 246 242 241 234 229 223 229 236
230 238 239 237 243 240 237 240 226 213 206 211 207 207 209 216 232 242 248 295 284 251 244 269 291 303 313 319 326 330 326 320 306 294 283 265 250 239 233 238 232 229 236
218 242 256 262 250 244 246 247 243 232 233 214 165 178 204 210 222 235 226 249 261 266 269 279 288 297 310 318 317 311 310 311 315 307 285 273 270 265 254 247 235 235 241
197 209 230 256 258 248 249 254 249 245 242 219 205 152 159 195 211 208 211 236 259 275 292 295 291 293 301 310 313 307 304 307 315 316 311 307 304 298 284 272 262 249 247
222 205 222 252 269 287 286 281 272 262 257 252 209 152 176 232 241 229 217 217 236 254 259 270 272 278 311 324 307 308 318 318 325 343 343 328 318 303 289 278 267 254 260
250 224 220 237 255 268 289 286 269 262 258 255 219 177 192 231 249 238 226 216 226 240 254 270 274 295 323 322 320 320 324 330 332 338 335 313 301 293 284 275 279 277 262
256 244 221 216 226 229 256 260 257 254 263 270 277 175 176 235 266 253 261 272 235 248 262 281 316 340 359 360 3 14 6 357 341 331 318 304 297 293 295 294 291 294 287
245 246 238 206 207 256 272 274 274 270 270 267 218 262 201 245 303 325 348 356 318 297 347 355 2 8 10 11 18 43 37 10 343 330 319 299 295 293 292 290 289 293 298
250 252 253 211 197 241 283 302 306 314 320 313 282 265 286 310 324 332 2 25 18 23 13 13 16 23 22 30 37 37 30 18 6 341 317 306 303 300 298 294 293 295 290
265 266 266 257 248 277 308 319 322 335 340 337 321 318 339 342 351 12 25 27 13 29 28 19 17 35 43 48 54 56 47 15 358 343 320 305 300 308 316 306 296 283 278